Location: Poughquag
(41.6090°N, 73.6820°W)
Time: 10:27:59
(UTC-04:00)

ACS3 Solar Sail - Pass Details

Date: 21 June 2024
Orbit: 992 x 1023 km, 97.4° (Epoch: 11 July)

Event Time Altitude Azimuth Distance (km) Brightness Sun altitude
Exits shadow 23:42:14 13° 225° (SW) 2,519 6.7 -22.7°
Maximum altitude 23:46:06 23° 269° (W) 1,975 6.5 -22.9°
Drops below altitude 10° 23:50:55 10° 321° (NW) 2,766 8.1 -23.2°
Sets 23:54:00 0° 335° (NNW) 3,718 9.2 -23.3°
